Trenton, NJ

7:38 AM EDT on June 26, 2017 (GMT -0400)
Trenton Mercer

Weather History for KTTN - January, 2013

Change the Weather History Date:

Tuesday, January 29, 2013

  Actual Average Record
Temperature  
Mean Temperature 41 °F 32 °F  
Max Temperature 49 °F 39 °F 70 °F (2002)
Min Temperature 33 °F 24 °F 0 °F (1873)
Degree Days  
Heating Degree Days 24 33  
Month to date heating degree days 920 984  
Since 1 July heating degree days 2678 2879  
Cooling Degree Days 0 0  
Month to date cooling degree days 0 0  
Year to date cooling degree days 0 0  
Moisture  
Dew Point 38 °F    
Average Humidity 88    
Maximum Humidity 100    
Minimum Humidity 76    
Precipitation  
Precipitation 0.00 in 0.09 in 1.00 in (1990)
Month to date precipitation 1.83 2.97  
Year to date precipitation 1.83 2.97  
Sea Level Pressure  
Sea Level Pressure 30.07 in    
Wind  
Wind Speed 3 mph (South)    
Max Wind Speed 9 mph    
Max Gust Speed 13 mph    
Visibility 4 miles    
Events      
T = Trace of Precipitation, MM = Missing Value Source: NWS Daily Summary

Daily Weather History Graph

Daily Weather History Graph

Search for Another Location

Airport or City:

Trip Planner

Search our weather history database for the weather conditions in past years. The results will help you decide how hot, cold, wet, or windy it might be!

Date:

Astronomy

Jan. 29, 2013 Rise Set
Actual Time 7:10 AM EST 5:14 PM EST
Civil Twilight 6:41 AM EST 5:43 PM EST
Nautical Twilight 6:09 AM EST 6:16 PM EST
Astronomical Twilight 5:37 AM EST 6:48 PM EST
Moon 8:08 PM EST (1/29) 8:06 AM EST (1/29)
Length of Visible Light 11h 01m
Length of Day
10h 03m
Waning Gibbous, 94% of the Moon is Illuminated
Jan 29
Waning Gibbous
Feb 3
Last Quarter
Feb 10
New
Feb 17
First Quarter
Feb 25
Full

Hourly Weather History & Observations

Time (EST) Temp. Windchill Dew Point Humidity Pressure Visibility Wind Dir Wind Speed Gust Speed Precip Events Conditions
12:06 AM 33.8 °F 30.8 °F 33.8 °F 100% 30.03 in 1.8 mi West 3.5 mph - N/A   Clear
12:13 AM 33.8 °F 30.8 °F 33.8 °F 100% 30.03 in 2.0 mi West 3.5 mph - N/A   Clear
12:53 AM 34.0 °F 31.0 °F 33.1 °F 96% 30.01 in 2.0 mi WNW 3.5 mph - N/A   Mostly Cloudy
1:28 AM 35.6 °F - 33.8 °F 93% 30.01 in 1.8 mi Calm Calm - N/A   Overcast
1:35 AM 35.6 °F 31.7 °F 33.8 °F 93% 30.01 in 2.5 mi West 4.6 mph - N/A   Overcast
1:53 AM 35.1 °F - 34.0 °F 96% 30.01 in 2.5 mi Calm Calm - N/A   Overcast
2:53 AM 35.1 °F - 34.0 °F 96% 30.03 in 2.0 mi Calm Calm - N/A   Overcast
3:35 AM 35.6 °F 32.8 °F 33.8 °F 93% 30.04 in 1.2 mi WSW 3.5 mph - N/A   Overcast
3:53 AM 35.1 °F 31.0 °F 34.0 °F 96% 30.03 in 1.5 mi WSW 4.6 mph - N/A   Overcast
4:08 AM 35.6 °F 32.8 °F 33.8 °F 93% 30.04 in 2.0 mi WSW 3.5 mph - N/A   Overcast
4:20 AM 35.6 °F - 33.8 °F 93% 30.04 in 1.2 mi Calm Calm - N/A   Overcast
4:35 AM 35.6 °F - 33.8 °F 93% 30.04 in 2.5 mi Calm Calm - N/A   Overcast
4:53 AM 35.1 °F - 34.0 °F 96% 30.04 in 2.5 mi Calm Calm - N/A   Overcast
6:53 AM 37.0 °F - 35.1 °F 93% 30.08 in 2.5 mi Calm Calm - N/A   Overcast
7:45 AM 37.4 °F - 35.6 °F 93% 30.11 in 1.5 mi Calm Calm - N/A   Overcast
7:53 AM 37.0 °F - 36.0 °F 96% 30.10 in 1.5 mi Calm Calm - N/A   Overcast
8:21 AM 39.2 °F - 35.6 °F 87% 30.11 in 2.0 mi Calm Calm - N/A   Overcast
8:53 AM 42.1 °F 39.2 °F 39.0 °F 89% 30.10 in 2.5 mi North 4.6 mph - N/A   Overcast
9:28 AM 42.8 °F - 39.2 °F 87% 30.12 in 3.0 mi Calm Calm - N/A   Overcast
9:53 AM 43.0 °F - 39.9 °F 89% 30.12 in 2.5 mi Calm Calm - N/A   Overcast
10:29 AM 44.6 °F - 39.2 °F 81% 30.14 in 3.0 mi Calm Calm - N/A   Overcast
10:53 AM 45.0 °F 43.5 °F 41.0 °F 86% 30.12 in 3.0 mi SSW 3.5 mph - N/A   Overcast
11:53 AM 48.0 °F - 43.0 °F 83% 30.11 in 4.0 mi SSW 4.6 mph - N/A   Haze
12:21 PM 48.2 °F - 42.8 °F 82% 30.11 in 4.0 mi SSW 3.5 mph - N/A   Haze
12:53 PM 48.9 °F - 42.1 °F 77% 30.09 in 4.0 mi SSW 3.5 mph - N/A   Haze
1:44 PM 48.2 °F - 42.8 °F 82% 30.09 in 4.0 mi SSW 5.8 mph - N/A   Haze
1:53 PM 48.9 °F - 42.1 °F 77% 30.08 in 4.0 mi SSW 4.6 mph - N/A   Haze
2:53 PM 48.0 °F - 42.1 °F 80% 30.07 in 4.0 mi South 4.6 mph - N/A   Haze
3:53 PM 48.0 °F - 43.0 °F 83% 30.07 in 4.0 mi SSE 4.6 mph - N/A   Haze
4:53 PM 48.0 °F - 42.1 °F 80% 30.06 in 6.0 mi SE 5.8 mph - N/A   Haze
5:53 PM 48.0 °F - 42.1 °F 80% 30.06 in 8.0 mi SE 5.8 mph - N/A   Overcast
6:06 PM 48.2 °F - 42.8 °F 82% 30.09 in 8.0 mi SE 3.5 mph - N/A   Overcast
6:53 PM 46.9 °F - 39.9 °F 77% 30.09 in 10.0 mi ESE 6.9 mph - N/A   Overcast
7:53 PM 46.0 °F 42.5 °F 39.0 °F 76% 30.09 in 10.0 mi SE 6.9 mph - N/A   Overcast
8:37 PM 44.6 °F 42.2 °F 39.2 °F 81% 30.10 in 10.0 mi ESE 4.6 mph - N/A   Overcast
8:53 PM 45.0 °F 42.6 °F 39.0 °F 80% 30.08 in 9.0 mi SE 4.6 mph - N/A   Overcast
9:26 PM 44.6 °F 41.4 °F 39.2 °F 81% 30.09 in 8.0 mi SE 5.8 mph - N/A   Overcast
9:53 PM 44.1 °F 42.5 °F 39.9 °F 85% 30.07 in 8.0 mi SSE 3.5 mph - N/A   Overcast
10:53 PM 44.1 °F 42.5 °F 39.9 °F 85% 30.05 in 6.0 mi SE 3.5 mph - N/A   Overcast
11:53 PM 44.1 °F - 41.0 °F 89% 30.04 in 4.0 mi Calm Calm - N/A   Overcast